FW4559 Weather Reports


time (UTC)temp
F
wind
direction
speed
knots
gust
knots
rain 1hr
in
rain 24hr
in
rain mn
in
humidity
%
barometer
mb
20260905070538 64 113 0.0 0.0 0.00 0.00 0.00 96 1013.4
20260905070042 64 113 0.0 0.0 0.00 0.00 0.00 96 1013.5
20260905065536 64 113 0.0 0.0 0.00 0.00 0.00 96 1013.5
20260905065038 64 113 0.0 0.0 0.00 0.00 0.00 96 1013.7
20260905064535 64 113 0.0 0.0 0.00 0.00 0.00 96 1013.7
20260905064036 65 113 0.0 0.0 0.00 0.00 0.00 96 1013.8
20260905063535 65 113 0.0 0.0 0.00 0.00 0.00 96 1013.8
20260905063033 65 113 0.0 0.0 0.00 0.00 0.00 96 1013.9
20260905062532 65 113 0.0 0.9 0.00 0.00 0.00 96 1014.0
20260905062031 65 113 0.0 0.9 0.00 0.00 0.00 96 1014.1
20260905061530 65 113 0.0 0.0 0.00 0.00 0.00 96 1014.3
20260905061029 65 113 0.0 0.9 0.00 0.00 0.00 96 1014.3
20260905060528 65 113 0.0 0.9 0.00 0.00 0.00 96 1014.4
20260905060029 65 113 0.0 0.9 0.00 0.00 0.00 95 1014.4
20260905055530 65 121 0.0 0.9 0.00 0.00 0.00 95 1014.5
20260905055028 65 121 0.0 0.0 0.00 0.00 0.00 95 1014.7
20260905054532 65 121 0.0 0.0 0.00 0.00 0.00 95 1014.8
20260905054026 65 121 0.0 0.0 0.00 0.00 0.00 95 1014.8
20260905053526 65 121 0.0 0.0 0.00 0.00 0.00 95 1014.8
20260905053025 65 121 0.0 0.0 0.00 0.00 0.00 95 1014.9
20260905052524 65 121 0.0 0.0 0.00 0.00 0.00 95 1015.0
20260905052024 65 121 0.0 0.0 0.00 0.00 0.00 95 1015.0
20260905051526 65 121 0.0 0.0 0.00 0.00 0.00 95 1015.0
20260905051023 65 121 0.0 0.0 0.00 0.00 0.00 95 1015.0
20260905050524 65 121 0.0 0.0 0.00 0.00 0.00 95 1015.1
20260905050025 65 121 0.0 0.0 0.00 0.00 0.00 95 1015.1
20260905045521 65 121 0.0 0.0 0.00 0.00 0.00 95 1015.2
20260905045025 65 121 0.0 0.0 0.00 0.00 0.00 95 1015.1
20260905044522 65 121 0.0 0.0 0.00 0.00 0.00 95 1015.0
20260905044020 65 121 0.0 0.0 0.00 0.00 0.00 94 1015.0
20260905043520 65 121 0.0 0.0 0.00 0.00 0.00 94 1015.2
20260905043021 65 121 0.0 0.0 0.00 0.00 0.00 94 1015.2
20260905042519 65 121 0.0 0.0 0.00 0.00 0.00 94 1015.0
20260905042019 65 121 0.0 0.0 0.00 0.00 0.00 94 1014.9
20260905041519 66 121 0.0 0.0 0.00 0.00 0.00 94 1014.9
20260905041019 66 121 0.0 0.0 0.00 0.00 0.00 94 1015.0
20260905040519 66 121 0.0 0.0 0.00 0.00 0.00 93 1014.9
20260905040020 66 121 0.0 0.0 0.00 0.00 0.00 94 1014.9
20260905035515 66 121 0.0 0.0 0.00 0.00 0.00 93 1014.8
20260905035013 66 121 0.0 0.9 0.00 0.00 0.00 94 1014.7
20260905034524 66 121 0.0 1.7 0.00 0.00 0.00 94 1014.7
20260905034014 66 121 0.0 1.7 0.00 0.00 0.00 94 1014.5
20260905033513 66 148 0.0 0.9 0.00 0.00 0.00 94 1014.4
20260905033013 66 173 0.0 0.0 0.00 0.00 0.00 94 1014.5
20260905032516 66 173 0.0 0.0 0.00 0.00 0.00 94 1014.4
20260905032016 66 173 0.0 0.0 0.00 0.00 0.00 93 1014.5
20260905031513 66 173 0.0 0.9 0.00 0.00 0.00 93 1014.3
20260905031011 66 125 0.0 0.0 0.00 0.00 0.00 93 1014.3
20260905030513 66 125 0.0 0.0 0.00 0.00 0.00 93 1014.5
20260905030012 66 125 0.0 0.0 0.00 0.00 0.00 93 1014.3
20260905025512 66 125 0.0 0.0 0.00 0.00 0.00 93 1014.3
20260905025012 66 125 0.0 0.0 0.00 0.00 0.00 93 1014.2
20260905024515 66 125 0.0 0.0 0.00 0.00 0.00 92 1014.1
20260905024011 66 125 0.0 0.0 0.00 0.00 0.00 92 1014.0
20260905023509 67 125 0.0 0.0 0.00 0.00 0.00 92 1013.9
20260905023012 67 125 0.0 0.0 0.00 0.00 0.00 92 1014.0
20260905022508 67 125 0.0 0.0 0.00 0.00 0.00 92 1014.2
20260905022007 67 125 0.0 0.9 0.00 0.00 0.00 91 1014.0
20260905021506 67 125 0.0 0.9 0.00 0.00 0.00 91 1013.9
20260905021008 67 139 0.0 0.9 0.00 0.00 0.00 92 1014.0
20260905020508 67 139 0.0 0.0 0.00 0.00 0.00 92 1014.0
20260905020007 67 139 0.0 0.0 0.00 0.00 0.00 92 1014.0
20260905015506 67 139 0.0 0.9 0.00 0.00 0.00 92 1014.0
20260905015006 68 139 0.0 0.9 0.00 0.00 0.00 91 1014.2
20260905014505 68 139 0.0 0.9 0.00 0.00 0.00 91 1014.4
20260905014005 68 139 0.0 0.0 0.00 0.00 0.00 91 1014.4
20260905013505 68 139 0.0 0.0 0.00 0.00 0.00 90 1014.5
20260905013005 68 139 0.0 0.9 0.00 0.00 0.00 90 1014.5
20260905012505 68 139 0.0 0.0 0.00 0.00 0.00 90 1014.3
20260905012005 68 139 0.0 0.0 0.00 0.00 0.00 90 1014.2
20260905011505 69 139 0.0 0.0 0.00 0.00 0.00 89 1014.2
20260905011006 69 139 0.0 0.0 0.00 0.00 0.00 89 1014.3
20260905010504 69 139 0.0 0.9 0.00 0.00 0.00 88 1014.3
20260905010004 69 139 0.0 0.9 0.00 0.00 0.00 88 1014.4
20260905005503 69 139 0.0 0.0 0.00 0.00 0.00 88 1014.4
20260905005003 70 139 0.0 0.9 0.00 0.00 0.00 88 1014.5
20260905004503 70 139 0.0 0.9 0.00 0.00 0.00 87 1014.4
20260905004003 70 213 0.0 0.0 0.00 0.00 0.00 86 1014.5
20260905003503 70 213 0.0 0.0 0.00 0.00 0.00 86 1014.6
20260905003006 71 213 0.0 0.0 0.00 0.00 0.00 86 1014.5
20260905002502 71 213 0.0 0.0 0.00 0.00 0.00 85 1014.6
20260905002003 71 213 0.0 0.0 0.00 0.00 0.00 85 1014.5
20260905001502 72 213 0.0 0.0 0.00 0.00 0.00 84 1014.5
20260905001002 72 213 0.0 0.0 0.00 0.00 0.00 83 1014.4
20260905000602 72 213 0.0 0.0 0.00 0.00 0.00 83 1014.2
20260905000502 72 213 0.0 0.0 0.00 0.00 0.00 83 1014.2
20260905000001 72 213 0.0 0.9 0.00 0.00 0.00 82 1014.1
20260904235501 72 230 0.0 2.6 0.00 0.00 0.00 82 1014.3
20260904235001 73 233 0.0 2.6 0.00 0.00 0.00 82 1014.4
20260904234500 74 205 0.9 1.7 0.00 0.00 0.00 80 1014.3
20260904234100 74 224 0.0 1.7 0.00 0.00 0.00 79 1014.5
20260904233600 75 154 0.0 0.0 0.00 0.00 0.00 77 1014.4
20260904233100 75 154 0.0 0.0 0.00 0.00 0.00 75 1014.4
20260904232600 75 154 0.0 0.9 0.00 0.00 0.00 75 1014.3
20260904232101 76 153 0.0 0.9 0.00 0.00 0.00 73 1014.3
20260904231600 77 153 0.0 0.0 0.00 0.00 0.00 72 1014.2
20260904231059 77 153 0.0 0.0 0.00 0.00 0.00 72 1014.2
20260904230559 77 153 0.0 0.0 0.00 0.00 0.00 70 1014.2
20260904230128 77 153 0.0 0.0 0.00 0.00 0.00 69 1014.2
20260904225600 78 153 0.0 0.0 0.00 0.00 0.00 70 1014.2
20260904225059 78 153 0.0 0.9 0.00 0.00 0.00 68 1014.1
20260904224603 78 154 0.0 0.9 0.00 0.00 0.00 68 1014.0
20260904224058 78 154 0.0 0.0 0.00 0.00 0.00 66 1014.0
20260904223558 78 154 0.0 0.9 0.00 0.00 0.00 68 1013.9
20260904223105 78 153 0.0 0.9 0.00 0.00 0.00 68 1014.0
20260904222558 78 334 0.0 1.7 0.00 0.00 0.00 67 1014.2
20260904222058 79 334 0.0 1.7 0.00 0.00 0.00 64 1014.3
20260904221558 80 52 0.0 1.7 0.00 0.00 0.00 66 1014.2
20260904221057 80 158 0.0 1.7 0.00 0.00 0.00 65 1014.2
20260904220557 80 328 0.0 1.7 0.00 0.00 0.00 64 1014.2
20260904220057 80 240 0.0 4.3 0.00 0.00 0.00 65 1014.2
20260904215557 80 242 0.0 5.2 0.00 0.00 0.00 64 1014.3
20260904215056 81 301 0.9 5.2 0.00 0.00 0.00 61 1014.1
20260904214559 82 44 0.9 3.5 0.00 0.00 0.00 62 1014.2
20260904214056 83 146 0.0 4.3 0.00 0.00 0.00 65 1014.1
20260904213556 84 340 1.7 4.3 0.00 0.00 0.00 65 1014.1
20260904213056 84 108 0.0 1.7 0.00 0.00 0.00 65 1013.7
20260904212556 83 128 0.0 0.9 0.00 0.00 0.00 67 1013.6
20260904212055 82 109 0.0 0.9 0.00 0.00 0.00 68 1013.5
20260904211555 82 194 0.0 3.5 0.00 0.00 0.00 68 1013.6
20260904211054 81 216 0.0 3.5 0.00 0.00 0.00 69 1013.7
20260904210554 81 155 0.9 3.5 0.00 0.00 0.00 68 1013.8
20260904210054 82 180 0.9 2.6 0.00 0.00 0.00 68 1013.9
20260904205554 81 166 0.0 1.7 0.00 0.00 0.00 68 1013.8
20260904205053 81 157 0.0 1.7 0.00 0.00 0.00 69 1013.7
20260904204553 80 210 0.0 2.6 0.00 0.00 0.00 71 1013.9
20260904204053 80 92 0.0 2.6 0.00 0.00 0.00 70 1013.7
20260904203553 80 112 0.0 4.3 0.00 0.00 0.00 68 1013.7
20260904203056 80 106 0.9 6.1 0.00 0.00 0.00 67 1013.6
20260904202554 81 115 0.9 3.5 0.00 0.00 0.00 65 1013.9
20260904202056 82 105 0.9 4.3 0.00 0.00 0.00 63 1013.8
20260904201552 83 70 1.7 7.8 0.00 0.00 0.00 61 1013.9
20260904201056 85 25 2.6 7.8 0.00 0.00 0.00 59 1014.0
20260904200551 87 2 0.9 3.5 0.00 0.00 0.00 56 1014.0
20260904200051 88 169 0.9 5.2 0.00 0.00 0.00 57 1013.8
20260904195551 89 151 1.7 5.2 0.00 0.00 0.00 54 1013.5
20260904195051 88 139 0.9 4.3 0.00 0.00 0.00 57 1013.5
20260904194550 88 245 0.9 5.2 0.00 0.00 0.00 57 1013.7
20260904194050 89 147 2.6 5.2 0.00 0.00 0.00 55 1013.7
20260904193551 91 226 1.7 7.0 0.00 0.00 0.00 54 1013.6
20260904193050 91 248 1.7 7.0 0.00 0.00 0.00 52 1013.6
20260904192549 93 52 0.0 2.6 0.00 0.00 0.00 53 1013.6
20260904192048 92 333 0.0 2.6 0.00 0.00 0.00 52 1013.7
20260904191545 92 102 0.0 2.6 0.00 0.00 0.00 56 1014.0
20260904191046 90 221 0.0 3.5 0.00 0.00 0.00 54 1014.2
20260904190544 90 219 0.9 7.0 0.00 0.00 0.00 52 1014.3
20260904190043 90 161 2.6 7.0 0.00 0.00 0.00 55 1014.5
20260904185543 92 211 0.9 5.2 0.00 0.00 0.00 50 1014.5
20260904185041 92 149 0.9 7.0 0.00 0.00 0.00 49 1014.5
20260904184541 91 148 1.7 7.0 0.00 0.00 0.00 48 1014.5
20260904184040 91 131 1.7 5.2 0.00 0.00 0.00 48 1014.5
20260904183538 91 229 1.7 4.3 0.00 0.00 0.00 50 1014.7
20260904183037 91 126 0.0 3.5 0.00 0.00 0.00 49 1014.9
20260904182536 91 216 0.0 3.5 0.00 0.00 0.00 51 1015.0
20260904182036 89 215 0.9 4.3 0.00 0.00 0.00 54 1015.0
20260904181535 88 133 1.7 4.3 0.00 0.00 0.00 53 1015.1
20260904181034 88 224 1.7 4.3 0.00 0.00 0.00 53 1015.2
20260904180536 89 181 0.9 4.3 0.00 0.00 0.00 55 1015.3
20260904180033 89 213 0.0 2.6 0.00 0.00 0.00 55 1015.2
20260904175533 89 212 0.0 0.9 0.00 0.00 0.00 56 1015.3
20260904175033 87 212 0.0 0.9 0.00 0.00 0.00 57 1015.5
20260904174533 87 212 0.0 0.9 0.00 0.00 0.00 58 1015.5
20260904174032 87 212 0.0 0.9 0.00 0.00 0.00 55 1015.6
20260904173532 86 212 0.0 0.9 0.00 0.00 0.00 56 1015.7
20260904173032 86 352 0.0 2.6 0.00 0.00 0.00 56 1015.6
20260904172532 87 352 0.0 5.2 0.00 0.00 0.00 54 1015.6
20260904172032 90 352 2.6 5.2 0.00 0.00 0.00 48 1015.7
20260904171531 91 165 0.9 2.6 0.00 0.00 0.00 52 1015.7
20260904171029 91 89 0.9 2.6 0.00 0.00 0.00 49 1015.8
20260904170528 91 196 0.0 0.9 0.00 0.00 0.00 50 1015.8
20260904170027 90 311 0.0 0.9 0.00 0.00 0.00 53 1015.7
20260904165525 89 243 0.0 1.7 0.00 0.00 0.00 56 1015.9
20260904165023 89 341 0.0 1.7 0.00 0.00 0.00 56 1015.9
20260904164523 87 50 0.0 3.5 0.00 0.00 0.00 59 1016.0
20260904164022 87 353 0.0 3.5 0.00 0.00 0.00 58 1016.2
20260904163521 86 97 0.9 3.5 0.00 0.00 0.00 58 1016.2
20260904163022 85 79 0.0 5.2 0.00 0.00 0.00 62 1016.3
20260904162521 84 32 0.0 7.0 0.00 0.00 0.00 60 1016.3
20260904162020 84 11 0.9 5.2 0.00 0.00 0.00 60 1016.3
20260904161519 84 305 2.6 6.1 0.00 0.00 0.00 59 1016.3
20260904161019 84 349 0.9 7.0 0.00 0.00 0.00 62 1016.3
20260904160519 83 357 0.9 6.1 0.00 0.00 0.00 63 1016.4
20260904160018 83 352 0.9 7.0 0.00 0.00 0.00 62 1016.4
20260904155517 83 331 0.9 7.8 0.00 0.00 0.00 64 1016.5
20260904155017 83 356 4.3 7.8 0.00 0.00 0.00 61 1016.5
20260904154518 83 22 0.9 8.7 0.00 0.00 0.00 64 1016.5
20260904154020 83 347 1.7 8.7 0.00 0.00 0.00 63 1016.5
20260904153517 82 70 0.9 7.8 0.00 0.00 0.00 64 1016.4
20260904153017 82 327 2.6 7.8 0.00 0.00 0.00 63 1016.4
20260904152516 83 11 2.6 7.0 0.00 0.00 0.00 62 1016.4
20260904152016 83 323 2.6 7.0 0.00 0.00 0.00 62 1016.4
20260904151517 84 99 2.6 7.0 0.00 0.00 0.00 61 1016.5
20260904151015 84 28 0.0 3.5 0.00 0.00 0.00 63 1016.4
20260904150515 84 57 0.9 3.5 0.00 0.00 0.00 63 1016.4
20260904150024 84 3 0.0 3.5 0.00 0.00 0.00 64 1016.5
20260904145515 85 353 0.0 3.5 0.00 0.00 0.00 62 1016.4
20260904145014 86 21 0.9 2.6 0.00 0.00 0.00 62 1016.4
20260904144513 87 308 0.0 0.9 0.00 0.00 0.00 62 1016.5
20260904144013 87 324 0.0 0.0 0.00 0.00 0.00 62 1016.4
20260904143513 86 324 0.0 1.7 0.00 0.00 0.00 63 1016.5
20260904143012 87 325 0.0 0.9 0.00 0.00 0.00 64 1016.5
20260904142511 85 219 0.0 0.0 0.00 0.00 0.00 67 1016.6
20260904142010 84 219 0.0 0.0 0.00 0.00 0.00 68 1016.5
20260904141507 84 219 0.0 0.0 0.00 0.00 0.00 69 1016.6
20260904141006 83 219 0.0 0.0 0.00 0.00 0.00 69 1016.6
20260904140505 83 219 0.0 0.0 0.00 0.00 0.00 72 1016.5
20260904140005 82 219 0.0 0.0 0.00 0.00 0.00 73 1016.6
20260904135503 81 219 0.0 0.0 0.00 0.00 0.00 75 1016.5
20260904135002 80 219 0.0 0.0 0.00 0.00 0.00 77 1016.5
20260904134600 80 219 0.0 0.0 0.00 0.00 0.00 78 1016.5
20260904134101 79 219 0.0 0.0 0.00 0.00 0.00 80 1016.5
20260904133557 78 219 0.0 0.0 0.00 0.00 0.00 80 1016.5
20260904133101 78 219 0.0 0.0 0.00 0.00 0.00 83 1016.4
20260904132554 76 219 0.0 0.0 0.00 0.00 0.00 84 1016.5
20260904132055 76 219 0.0 0.0 0.00 0.00 0.00 86 1016.5
20260904131551 75 219 0.0 0.0 0.00 0.00 0.00 89 1016.5
20260904131049 74 219 0.0 0.0 0.00 0.00 0.00 91 1016.6
20260904130548 72 219 0.0 0.0 0.00 0.00 0.00 93 1016.8
20260904130100 71 219 0.0 0.0 0.00 0.00 0.00 94 1016.8
20260904125549 71 219 0.0 0.0 0.00 0.00 0.00 96 1016.8
20260904125048 70 219 0.0 0.0 0.00 0.00 0.00 96 1016.8
20260904124547 70 219 0.0 0.0 0.00 0.00 0.00 96 1016.9
20260904124044 69 219 0.0 0.0 0.00 0.00 0.00 96 1016.9
20260904123542 67 219 0.0 0.0 0.00 0.00 0.00 96 1016.9
20260904123040 66 219 0.0 0.0 0.00 0.00 0.00 96 1016.8
20260904122540 64 219 0.0 0.0 0.00 0.00 0.00 96 1016.7
20260904122039 64 219 0.0 0.0 0.00 0.00 0.00 96 1016.6
20260904121539 63 219 0.0 0.0 0.00 0.00 0.00 96 1016.7
20260904121041 63 219 0.0 0.0 0.00 0.00 0.00 96 1016.6
20260904120537 62 219 0.0 0.0 0.00 0.00 0.00 96 1016.6
20260904120047 62 219 0.0 0.0 0.00 0.00 0.00 96 1016.6
20260904115537 62 219 0.0 0.0 0.00 0.00 0.00 96 1016.6
20260904115037 62 219 0.0 0.0 0.00 0.00 0.00 96 1016.5
20260904114538 62 219 0.0 0.0 0.00 0.00 0.00 96 1016.6
20260904114036 62 219 0.0 0.0 0.00 0.00 0.00 96 1016.5
20260904113541 62 219 0.0 0.0 0.00 0.00 0.00 96 1016.5
20260904113038 62 219 0.0 0.0 0.00 0.00 0.00 96 1016.4
20260904112535 62 219 0.0 0.0 0.00 0.00 0.00 96 1016.4
20260904112035 62 219 0.0 0.0 0.00 0.00 0.00 96 1016.4
20260904111535 62 219 0.0 0.0 0.00 0.00 0.00 96 1016.4
20260904111035 62 219 0.0 0.0 0.00 0.00 0.00 96 1016.4
20260904110535 62 219 0.0 0.0 0.00 0.00 0.00 96 1016.3
20260904110034 62 219 0.0 0.0 0.00 0.00 0.00 96 1016.2
20260904105533 62 219 0.0 0.0 0.00 0.00 0.00 96 1016.3
20260904105033 62 219 0.0 0.0 0.00 0.00 0.00 96 1016.2
20260904104532 62 219 0.0 0.0 0.00 0.00 0.00 96 1016.2
20260904104031 62 219 0.0 0.0 0.00 0.00 0.00 96 1016.0
20260904103531 62 219 0.0 0.0 0.00 0.00 0.00 96 1016.1
20260904103032 62 219 0.0 0.0 0.00 0.00 0.00 96 1016.0
20260904102531 62 219 0.0 0.0 0.00 0.00 0.00 96 1015.9
20260904102033 62 219 0.0 0.0 0.00 0.00 0.00 96 1016.1
20260904101531 62 219 0.0 0.0 0.00 0.00 0.00 96 1015.9
20260904101029 62 219 0.0 0.0 0.00 0.00 0.00 96 1016.0
20260904100532 62 219 0.0 0.0 0.00 0.00 0.00 96 1015.9
20260904100033 62 219 0.0 0.0 0.00 0.00 0.00 96 1015.9
20260904095531 62 219 0.0 0.0 0.00 0.00 0.00 96 1015.9
20260904095028 63 219 0.0 0.0 0.00 0.00 0.00 96 1015.8
20260904094528 63 219 0.0 0.0 0.00 0.00 0.00 96 1016.0
20260904094027 63 219 0.0 0.0 0.00 0.00 0.00 96 1016.0
20260904093527 63 219 0.0 0.0 0.00 0.00 0.00 96 1015.8
20260904093027 63 219 0.0 0.0 0.00 0.00 0.00 96 1015.8
20260904092526 63 219 0.0 0.0 0.00 0.00 0.00 96 1015.8
20260904092029 63 219 0.0 0.0 0.00 0.00 0.00 96 1015.7
20260904091526 63 219 0.0 0.0 0.00 0.00 0.00 96 1015.8
20260904091025 63 219 0.0 0.0 0.00 0.00 0.00 96 1015.7
20260904090525 63 219 0.0 0.0 0.00 0.00 0.00 96 1015.5
20260904090031 63 219 0.0 0.0 0.00 0.00 0.00 96 1015.5
20260904085525 63 219 0.0 0.0 0.00 0.00 0.00 96 1015.4
20260904085125 63 219 0.0 0.0 0.00 0.00 0.00 96 1015.5
20260904084525 63 219 0.0 0.0 0.00 0.00 0.00 96 1015.3
20260904084026 63 219 0.0 0.0 0.00 0.00 0.00 96 1015.4
20260904083524 63 219 0.0 0.0 0.00 0.00 0.00 96 1015.3
20260904083032 63 219 0.0 0.0 0.00 0.00 0.00 96 1015.3
20260904082523 63 219 0.0 0.0 0.00 0.00 0.00 96 1015.2
20260904082023 64 219 0.0 0.0 0.00 0.00 0.00 96 1015.4
20260904081522 63 219 0.0 0.0 0.00 0.00 0.00 96 1015.3
20260904081021 64 219 0.0 0.0 0.00 0.00 0.00 96 1015.3
20260904080520 64 219 0.0 0.0 0.00 0.00 0.00 96 1015.3
20260904080020 64 219 0.0 0.0 0.00 0.00 0.00 96 1015.4
20260904075520 64 219 0.0 0.0 0.00 0.00 0.00 96 1015.4
20260904075019 64 219 0.0 0.0 0.00 0.00 0.00 96 1015.4
20260904074520 64 219 0.0 0.0 0.00 0.00 0.00 96 1015.5
20260904074020 64 219 0.0 0.9 0.00 0.00 0.00 96 1015.5
20260904073523 64 219 0.0 0.9 0.00 0.00 0.00 96 1015.5
20260904073019 64 219 0.0 0.0 0.00 0.00 0.00 96 1015.5
20260904072519 64 219 0.0 0.0 0.00 0.00 0.00 96 1015.6
20260904072019 64 219 0.0 0.0 0.00 0.00 0.00 96 1015.6
20260904071522 64 219 0.0 0.0 0.00 0.00 0.00 96 1015.5
20260904071021 64 219 0.0 0.0 0.00 0.00 0.00 96 1015.6